Regional Weather Roundup
Issued by NWS Goodland, KS

Home | Current Version | Previous Version | Text Only | Print | Product List | Glossary Off
Versions: 1 2 3 4 5 6 7 8 9 10 11 12 13 14 15 16 17 18 19 20 21 22 23 24 25 26 27 28 29 30 31 32 33 34 35 36 37 38 39 40 41 42 43 44 45 46 47 48 49 50

000
ASUS43 KGLD 301608
RWRGLD

GOODLAND FORECAST AREA HOURLY WEATHER ROUNDUP
NATIONAL WEATHER SERVICE GOODLAND KS
1000 AM MDT TUE SEP 30 2014

...OFFICIAL OBSERVATIONS...

CITY           SKY/WX    TMP DP  RH WIND       PRES   REMARKS
GOODLAND KS    SUNNY     62  48  60 S7        29.85S
HILL CITY KS   SUNNY     70  49  47 SE8       29.81F
IMPERIAL NEB   SUNNY     64  48  56 SW13      29.81R
MCCOOK NEB     SUNNY     65  50  58 SW8       29.82S
AKRON CO       SUNNY     62  42  47 SW13      29.84S
BURLINGTON CO  SUNNY     63  44  50 S12       29.86S
LIMON CO       SUNNY     56  43  61 E3        29.89S
$$

...UNOFFICIAL OBSERVATIONS...

CITY           SKY/WX    TMP DP  RH WIND       PRES   REMARKS
COLBY KS       SUNNY     66  52  59 SE5       29.84S
GOVE KS          N/A     66  32  28 MISG        N/A
NORTON KS      SUNNY     70  43  37 SE5       29.81S
SHARON SPRINGS   N/A     63  50  61 S6          N/A
WAKEENEY KS      N/A     69  58  66 MISG        N/A
KIT CARSON CO    N/A     55  47  74 MISG        N/A
YUMA CO          N/A     61  47  59 SW13        N/A
$$



USA.gov is the U.S. government's official web portal to all federal, state and local government web resources and services.